Location: C�an Torras
(41.5052°N, 1.9280°E)
Time: 21:50:51
(UTC+00:00)

Cosmos 2026 Rocket - Pass Details

Date: 20 January 2021
Orbit: 940 x 1000 km, 82.9° (Epoch: 02 March)

Event Time Altitude Azimuth Distance (km) Brightness Sun altitude
Rises 19:29:57 0° 198° (SSW) 3,595 7.2 -29.0°
Reaches altitude 10° 19:32:28 10° 203° (SSW) 2,659 6.5 -29.5°
Maximum altitude 19:38:25 57° 281° (W) 1,120 4.5 -30.6°
Drops below altitude 10° 19:44:30 10° 359° (N) 2,712 6.3 -31.8°
Sets 19:47:06 0° 4° (N) 3,672 7.0 -32.2°
